EW2493 Weather Reports


Display with metric or nautical units.
time (UTC)temp
F
wind
direction
speed
MPH
gust
MPH
rain 1hr
in
rain 24hr
in
rain mn
in
humidity
%
barometer
mb
20260506234603 50 274 1.0 6.0 0.00 0.00 0.00 38 1008.1
20260506233055 49 306 0.0 11.0 0.00 0.00 0.00 39 1008.2
20260506231554 50 317 7.0 14.0 0.00 0.00 0.00 39 1008.2
20260506230048 50 308 2.0 14.0 0.00 0.00 0.00 40 1008.3
20260506224547 50 304 5.0 14.0 0.00 0.00 0.00 40 1008.4
20260506223045 50 292 4.0 15.0 0.00 0.00 0.00 38 1008.6
20260506221545 50 272 2.0 11.0 0.00 0.00 0.00 38 1008.7
20260506220041 50 296 6.0 19.0 0.00 0.00 0.00 39 1008.9
20260506214540 50 300 10.0 18.0 0.00 0.00 0.00 38 1009.2
20260506213038 49 277 1.0 11.0 0.00 0.00 0.00 39 1009.3
20260506211533 48 353 6.0 13.0 0.00 0.00 0.00 41 1009.6
20260506210034 48 328 9.0 17.0 0.00 0.00 0.00 41 1009.7
20260506204529 48 291 8.0 16.0 0.00 0.00 0.00 41 1009.8
20260506203036 48 311 6.0 16.0 0.00 0.00 0.00 40 1010.0
20260506201526 47 336 7.0 16.0 0.00 0.00 0.00 43 1010.1
20260506200023 47 320 10.0 16.0 0.00 0.00 0.00 43 1010.2
20260506194520 47 335 10.0 16.0 0.00 0.00 0.00 42 1010.3
20260506191518 47 319 6.0 18.0 0.00 0.00 0.00 42 1010.6
20260506190012 46 317 10.0 19.0 0.00 0.00 0.00 44 1010.7
20260506184510 46 327 9.0 16.0 0.00 0.00 0.00 44 1010.8
20260506183011 45 306 8.0 18.0 0.00 0.00 0.00 45 1011.0
20260506181507 45 314 8.0 21.0 0.00 0.00 0.00 45 1011.3
20260506180007 45 290 8.0 17.0 0.00 0.00 0.00 46 1011.5
20260506174502 44 308 9.0 16.0 0.00 0.00 0.00 45 1011.7
20260506173002 44 296 8.0 17.0 0.00 0.00 0.00 46 1011.9
20260506171617 44 331 8.0 17.0 0.00 0.00 0.00 46 1011.9
20260506170058 43 320 9.0 14.0 0.00 0.00 0.00 47 1012.1
20260506164606 43 313 12.0 19.0 0.00 0.00 0.00 47 1012.1
20260506163104 42 306 7.0 15.0 0.00 0.00 0.00 49 1012.2
20260506161622 42 296 5.0 15.0 0.00 0.00 0.00 51 1012.2
20260506160051 42 312 8.0 13.0 0.00 0.00 0.00 53 1012.2
20260506154552 42 329 10.0 16.0 0.00 0.00 0.00 52 1012.3
20260506153051 41 304 5.0 14.0 0.00 0.00 0.00 54 1012.3
20260506151548 41 291 2.0 12.0 0.00 0.00 0.00 58 1012.3
20260506150045 40 282 5.0 12.0 0.00 0.00 0.00 57 1012.4
20260506144543 40 306 5.0 12.0 0.00 0.00 0.00 58 1012.5
20260506143043 40 311 6.0 11.0 0.00 0.00 0.00 57 1012.6
20260506141538 39 290 6.0 13.0 0.00 0.00 0.00 61 1012.6
20260506140139 39 295 6.0 11.0 0.00 0.00 0.00 62 1012.7
20260506134533 38 296 5.0 8.0 0.00 0.00 0.00 63 1012.6
20260506133031 38 282 5.0 8.0 0.00 0.00 0.00 65 1012.5
20260506131532 37 304 2.0 5.0 0.00 0.00 0.00 76 1012.4
20260506130025 35 287 1.0 3.0 0.00 0.00 0.00 82 1012.4
20260506124518 34 285 1.0 3.0 0.00 0.00 0.00 83 1012.4
20260506123017 34 277 0.0 2.0 0.00 0.00 0.00 83 1012.2
20260506121614 33 277 0.0 2.0 0.00 0.00 0.00 83 1012.0
20260506120017 33 277 0.0 1.0 0.00 0.00 0.00 83 1011.8
20260506114510 32 277 0.0 2.0 0.00 0.00 0.00 84 1011.7
20260506113007 32 269 0.0 1.0 0.00 0.00 0.00 84 1011.5
20260506111505 32 269 0.0 2.0 0.00 0.00 0.00 84 1011.6
20260506110005 32 270 1.0 2.0 0.00 0.00 0.00 84 1011.5
20260506104505 32 268 0.0 2.0 0.00 0.00 0.00 83 1011.5
20260506103006 32 268 1.0 2.0 0.00 0.00 0.00 83 1011.6
20260506101506 32 273 1.0 2.0 0.00 0.00 0.00 82 1011.5
20260506100001 32 275 1.0 2.0 0.00 0.00 0.00 82 1011.5
20260506094601 32 272 0.0 2.0 0.00 0.00 0.00 82 1011.5
20260506093059 32 272 0.0 2.0 0.00 0.00 0.00 81 1011.5
20260506091558 32 271 1.0 2.0 0.00 0.00 0.00 81 1011.4
20260506090057 32 272 1.0 2.0 0.00 0.00 0.00 81 1011.4
20260506084621 32 272 1.0 2.0 0.00 0.00 0.00 81 1011.3
20260506083056 31 287 1.0 3.0 0.00 0.00 0.00 81 1011.2
20260506081557 32 287 1.0 2.0 0.00 0.00 0.00 80 1011.3
20260506073052 31 287 0.0 2.0 0.00 0.00 0.00 80 1011.3
20260506071551 31 287 0.0 2.0 0.00 0.00 0.00 80 1011.3
20260506061543 30 274 1.0 3.0 0.00 0.00 0.00 80 1011.2
20260506044606 29 303 0.0 2.0 0.00 0.00 0.00 72 1010.8
20260506043032 31 310 1.0 2.0 0.00 0.00 0.00 70 1010.8
20260506041529 32 310 0.0 2.0 0.00 0.00 0.00 69 1010.8
20260506040030 33 310 1.0 3.0 0.00 0.00 0.00 68 1010.8
20260506034553 33 317 1.0 3.0 0.00 0.00 0.00 68 1010.6
20260506033027 33 327 1.0 3.0 0.00 0.00 0.00 67 1010.5
20260506031526 34 329 1.0 3.0 0.00 0.00 0.00 65 1010.3
20260506030024 35 337 1.0 4.0 0.00 0.00 0.00 63 1010.1
20260506024521 36 329 2.0 4.0 0.00 0.00 0.00 62 1009.9
20260506023018 38 346 2.0 4.0 0.00 0.00 0.00 61 1009.6
20260506021515 39 352 1.0 3.0 0.00 0.00 0.00 60 1009.4
20260506020014 39 351 2.0 6.0 0.00 0.00 0.00 58 1009.2
20260506014516 40 341 4.0 8.0 0.00 0.00 0.00 55 1009.0
20260506013011 41 350 4.0 9.0 0.00 0.00 0.00 54 1009.0
20260506011514 42 339 7.0 13.0 0.00 0.00 0.00 51 1008.9
20260506010009 43 358 6.0 13.0 0.00 0.00 0.00 51 1008.7
20260506004513 44 325 8.0 13.0 0.00 0.00 0.00 48 1008.6
20260506003008 44 330 9.0 14.0 0.00 0.00 0.00 46 1008.4
20260506001504 44 332 9.0 14.0 0.00 0.00 0.00 46 1008.4
20260506000002 44 318 11.0 15.0 0.00 0.00 0.00 45 1008.2